GORIZONT 28 [-]

Last updated on Jan. 23, 2021, 7:21 a.m. UTC

1 22880U 93069A   21022.43452873 -.00000046  00000-0  00000-0 0  9991
2 22880  14.8604   3.2419 0031378 112.6972 244.7038  0.99646612 99474
UTC
Height (km)
Latitude
Longitude
Inclination
Orbital Period
UTC large
Height (km)
Speed (km/s)
/
Latitude / Longitude
Inclination (degrees)
Orbital Period (minutes)
Azimuth
Elevation
Range (km)
Doppler Factor
iOS Compass Heading
iOS Angle

Next 30 passes for location: Hong Kong

Rise time Rise Azimuth (degrees) Set time Set Azimuth (degrees) Duration Max altitude (degrees)

No matching passes for this satellites